West Palm Beach, FL

3:02 PM EDT on July 26, 2017 (GMT -0400)
Palm Beach International

Weather History for KPBI - February, 2014

Change the Weather History Date:

Saturday, February 8, 2014

  Actual Average Record
Temperature  
Mean Temperature 75 °F 67 °F  
Max Temperature 83 °F 76 °F 87 °F (1974)
Min Temperature 67 °F 58 °F 28 °F (1895)
Degree Days  
Heating Degree Days 0 2  
Month to date heating degree days 0 16  
Since 1 July heating degree days 102 173  
Cooling Degree Days 10 4  
Month to date cooling degree days 91 32  
Year to date cooling degree days 213 140  
Growing Degree Days 25 (Base 50)    
Moisture  
Dew Point 68 °F    
Average Humidity 79    
Maximum Humidity 100    
Minimum Humidity 58    
Precipitation  
Precipitation T in 0.08 in 2.55 in (1910)
Month to date precipitation 0.42 0.76  
Year to date precipitation 10.84 3.89  
Snow  
Snow 0.00 in - - ()
Month to date snowfall 0.0  
Since 1 July snowfall 0.0  
Snow Depth 0.00 in    
Sea Level Pressure  
Sea Level Pressure 30.06 in    
Wind  
Wind Speed 6 mph (North)    
Max Wind Speed 18 mph    
Max Gust Speed 22 mph    
Visibility 7 miles    
Events Fog , Rain    
T = Trace of Precipitation, MM = Missing Value Source: NWS Daily Summary

Daily Weather History Graph

Daily Weather History Graph

Search for Another Location

Airport or City:

Trip Planner

Search our weather history database for the weather conditions in past years. The results will help you decide how hot, cold, wet, or windy it might be!

Date:

Astronomy

Feb. 08, 2014 Rise Set
Actual Time 7:01 AM EST 6:08 PM EST
Civil Twilight 6:37 AM EST 6:31 PM EST
Nautical Twilight 6:10 AM EST 6:59 PM EST
Astronomical Twilight 5:42 AM EST 7:26 PM EST
Moon 1:09 PM EST (2/8) 2:05 AM EST (2/8)
Length of Visible Light 11h 54m
Length of Day
11h 06m
Waxing Gibbous, 68% of the Moon is Illuminated
Feb 8
Waxing Gibbous
Feb 14
Full
Feb 22
Last Quarter
Mar 1
New
Mar 8
First Quarter

Hourly Weather History & Observations

Time (EST) Temp. Heat Index Dew Point Humidity Pressure Visibility Wind Dir Wind Speed Gust Speed Precip Events Conditions
12:53 AM 69.1 °F - 66.9 °F 93% 30.10 in 10.0 mi North 5.8 mph - N/A   Mostly Cloudy
1:04 AM 70.0 °F - 68.0 °F 93% 30.10 in 10.0 mi North 6.9 mph - N/A   Mostly Cloudy
1:10 AM 70.0 °F - 68.0 °F 93% 30.10 in 10.0 mi North 9.2 mph - N/A   Overcast
1:53 AM 70.0 °F - 68.0 °F 93% 30.08 in 5.0 mi North 5.8 mph - N/A   Overcast
2:53 AM 70.0 °F - 68.0 °F 93% 30.07 in 10.0 mi NNW 5.8 mph - N/A   Overcast
3:53 AM 70.0 °F - 68.0 °F 93% 30.06 in 7.0 mi NNW 4.6 mph - N/A   Overcast
4:53 AM 70.0 °F - 68.0 °F 93% 30.06 in 7.0 mi North 3.5 mph - N/A   Overcast
5:41 AM 69.1 °F - 68.0 °F 96% 30.06 in 1.0 mi North 3.5 mph - N/A   Overcast
5:53 AM 69.1 °F - 68.0 °F 96% 30.06 in 1.0 mi Calm Calm - N/A   Overcast
6:02 AM 69.1 °F - 68.0 °F 96% 30.07 in 0.0 mi North 4.6 mph - N/A Fog Fog
6:53 AM 68.0 °F - 66.9 °F 96% 30.06 in 0.2 mi Calm Calm - N/A Fog Fog
7:02 AM 68.0 °F - 66.9 °F 96% 30.07 in 0.8 mi Calm Calm - N/A Fog Fog
7:11 AM 68.0 °F - 66.9 °F 96% 30.07 in 0.2 mi Calm Calm - N/A Fog Fog
7:53 AM 68.0 °F - 68.0 °F 100% 30.07 in 0.5 mi Calm Calm - N/A Fog Fog
8:05 AM 68.0 °F - 66.9 °F 96% 30.07 in 0.2 mi Calm Calm - N/A Fog Fog
8:26 AM 69.1 °F - 68.0 °F 96% 30.08 in 0.5 mi WNW 4.6 mph - N/A Fog Fog
8:53 AM 69.1 °F - 69.1 °F 100% 30.08 in 1.0 mi Calm Calm - N/A   Mist
9:00 AM 70.0 °F - 69.1 °F 97% 30.08 in 2.5 mi Calm Calm - N/A   Overcast
9:03 AM 70.0 °F - 69.1 °F 97% 30.08 in 4.0 mi Calm Calm - N/A   Mostly Cloudy
9:13 AM 71.1 °F - 69.1 °F 93% 30.08 in 7.0 mi Calm Calm - N/A   Scattered Clouds
9:53 AM 75.9 °F - 70.0 °F 82% 30.09 in 10.0 mi Calm Calm - N/A   Scattered Clouds
10:53 AM 79.0 °F - 69.1 °F 72% 30.09 in 10.0 mi WSW 5.8 mph - N/A   Scattered Clouds
11:21 AM 82.0 °F 84.9 °F 68.0 °F 62% 30.08 in 10.0 mi SW 12.7 mph - N/A   Mostly Cloudy
11:53 AM 82.0 °F 84.9 °F 68.0 °F 62% 30.06 in 10.0 mi SW 10.4 mph - N/A   Mostly Cloudy
12:53 PM 82.0 °F 84.5 °F 66.9 °F 60% 30.03 in 10.0 mi Calm Calm - N/A   Mostly Cloudy
1:53 PM 81.0 °F 84.1 °F 69.1 °F 67% 30.01 in 10.0 mi NE 5.8 mph - N/A   Mostly Cloudy
2:53 PM 80.1 °F 83.2 °F 70.0 °F 71% 30.00 in 10.0 mi East 8.1 mph - N/A   Mostly Cloudy
3:53 PM 79.0 °F - 71.1 °F 77% 29.99 in 10.0 mi East 8.1 mph - 0.00 in Rain Light Rain
4:53 PM 77.0 °F - 71.1 °F 82% 30.01 in 10.0 mi North 9.2 mph - 0.00 in   Mostly Cloudy
5:31 PM 75.9 °F - 70.0 °F 82% 30.02 in 10.0 mi North 11.5 mph - N/A   Mostly Cloudy
5:53 PM 73.9 °F - 69.1 °F 85% 30.02 in 10.0 mi NNE 12.7 mph - N/A   Mostly Cloudy
6:02 PM 73.0 °F - 68.0 °F 84% 30.03 in 10.0 mi North 15.0 mph - N/A   Mostly Cloudy
6:42 PM 71.1 °F - 66.9 °F 87% 30.03 in 10.0 mi NNE 9.2 mph - N/A   Mostly Cloudy
6:53 PM 71.1 °F - 66.9 °F 87% 30.04 in 10.0 mi NNE 10.4 mph - N/A   Mostly Cloudy
6:59 PM 71.1 °F - 66.9 °F 87% 30.04 in 10.0 mi North 11.5 mph - N/A   Mostly Cloudy
7:53 PM 70.0 °F - 64.9 °F 84% 30.06 in 10.0 mi North 17.3 mph - N/A   Mostly Cloudy
8:06 PM 70.0 °F - 64.9 °F 84% 30.06 in 10.0 mi NNW 12.7 mph - N/A   Mostly Cloudy
8:21 PM 70.0 °F - 64.9 °F 84% 30.06 in 10.0 mi North 11.5 mph - N/A   Scattered Clouds
8:53 PM 69.1 °F - 64.9 °F 87% 30.07 in 10.0 mi NNW 9.2 mph - N/A   Partly Cloudy
9:53 PM 69.1 °F - 64.0 °F 84% 30.08 in 10.0 mi NNW 10.4 mph - N/A   Mostly Cloudy
10:53 PM 68.0 °F - 64.0 °F 87% 30.07 in 10.0 mi NNW 6.9 mph - N/A   Mostly Cloudy
11:53 PM 68.0 °F - 64.0 °F 87% 30.06 in 10.0 mi Calm Calm - N/A   Mostly Cloudy